Flag for U.S.A. Weather past 2 weeks in Manhattan, Kansas, U.S.A.

Now
66 °F

Overcast.


Feels Like: 66 °F
Forecast: 63 / 80 °F
Wind: 7 mph from North

Location: Manhattan Municipal Airport

Current Time: Aug 29, 2015 at 9:47:04 AM

Latest Report: Aug 29, 2015 at 8:52 AM


Visibility: 10 mi

Pressure: 30.01 "Hg

Humidity: 87%

Dew point: 62 °F

Location of ManhattanLocation

Historic Weather in Manhattan — Graph

°F

Manhattan temperature yesterday

Maximum temperature yesterday: 87 °F (at 2:52 PM)
Minimum temperature yesterday: 69 °F (at 11:52 PM)
Average temperature yesterday: 77 °F

Past Weeks' High & Low Weather Summary

 TemperatureHumidityPressure
High93 °F (Aug 16, 3:52 PM)100% (Aug 24, 1:52 AM)30.22 "Hg (Aug 24, 1:52 AM)
Low50 °F (Aug 24, 5:52 AM)27% (Aug 25, 2:52 PM)29.66 "Hg (Aug 18, 2:52 PM)
Average73 °F68%29.98 "Hg
* Reported Aug 14 8:52 AM — Aug 29 8:52 AM, Manhattan, Weather by CustomWeather, © 2015

Note: Actual official high and low records may vary slightly from our data, if they occured in-between our weather recording intervals... More about our weather records

Advertising

Manhattan weather history for previous 24 hours

 ConditionsComfort  
Time TempWeatherWind HumidityBarometerVisibility
8:52 AM
Sat, Aug 29
66 °FOvercast.7 mph87%30.01 "Hg10 mi
7:52 AM66 °FOvercast.6 mph87%30.01 "Hg10 mi
6:52 AM66 °FOvercast.5 mph87%29.97 "Hg10 mi
5:52 AM66 °FOvercast.No wind87%29.97 "Hg10 mi
4:52 AM67 °FMostly cloudy.No wind87%29.96 "Hg10 mi
3:52 AM67 °FMostly cloudy.5 mph90%29.95 "Hg10 mi
1:52 AM67 °FPassing clouds.3 mph93%29.95 "Hg10 mi
12:52 AM69 °FPassing clouds.3 mph87%29.95 "Hg10 mi
11:52 PM
Fri, Aug 28
69 °FClear.3 mph87%29.93 "Hg10 mi
10:52 PM71 °FClear.3 mph84%29.94 "Hg10 mi
9:52 PM74 °FPassing clouds.7 mph76%29.92 "Hg10 mi
8:52 PM76 °FMostly cloudy.6 mph80%29.89 "Hg10 mi
7:52 PM76 °FPassing clouds.7 mph80%29.85 "Hg10 mi
6:52 PM82 °FSunny.5 mph67%29.83 "Hg10 mi
5:52 PM86 °FScattered clouds.5 mph57%29.83 "Hg10 mi
4:52 PM86 °FPassing clouds.6 mph61%29.81 "Hg10 mi
3:52 PM84 °FScattered clouds.9 mph67%29.81 "Hg10 mi
2:52 PM87 °FScattered clouds.9 mph59%29.82 "Hg10 mi
1:52 PM84 °FOvercast.10 mph61%29.83 "Hg10 mi
12:52 PM85 °FPartly sunny.13 mph61%29.83 "Hg10 mi
11:52 AM84 °FScattered clouds.16 mph61%29.85 "Hg10 mi
10:52 AM81 °FSunny.16 mph65%29.85 "Hg10 mi
9:52 AM77 °FPassing clouds.15 mph74%29.86 "Hg10 mi
Weather by CustomWeather, © 2015

See weather overviewHow to use our weather pages